Current weather by "City, St" or "zip code"  
 
Advertise Here

Current Conditions: Montgomery, Dannelly Field, AL

Mostly Cloudy


73.0 F

Last Updated on May 29 2020, 11:53 pm CDT
Humidity: 87%
Wind Speed: N 0.0 mph
Barometer 30.04 in
Dewpoint: 69.1 F
Visibility: 10.00 mi
Precip: --
Heat Index: NA
Wind Chill: NA
Current conditions at:

Montgomery, Dannelly Field, AL (KMGM)

Lat: 32.30028 Lon: 86.40611

Local Radar Image active severe weather and emergency alerts image image weather storm and storm spotter reports image weather observation monitoring service image
Local
Radar
Active
Alerts
Storm Reports Obs
Monitoring

Sign-up For Email & Text Message Weather Alert Notification Services


Advertise Here

Observation History for Montgomery, Dannelly Field, AL


Time Wind
(mph)
Vis
(mi)
Weather Precip (in) Temperature (F) Relative
Humidity
Wind
Chill
(F)
Heat
Index
(F)
Pressure
Air Dwpt altimeter
(in)
sea level
(mb)
Rmks
11:53 pm CDT N 0.0 10.00 Mostly Cloudy -- 73.0 69.1 87% NA NA 30.04 1017.0
10:53 pm CDT N 0.0 10.00 Fair -- 74.0 69.1 85% NA NA 30.04 1016.9
9:53 pm CDT N 0.0 10.00 Fair -- 74.0 70.0 88% NA NA 30.03 1016.5
8:53 pm CDT N 0.0 10.00 Fair -- 75.0 71.1 88% NA NA 30.01 1016.0
7:53 pm CDT W 4.6 10.00 Fair -- 80.0 69.1 69% NA 83 30.00 1015.6
6:53 pm CDT W 4.6 10.00 Fair -- 85.0 66.9 55% NA 88 29.98 1014.9
5:53 pm CDT NW 8.1 10.00 Fair -- 87.0 64.9 48% NA 89 29.98 1015.0
4:53 pm CDT W 6.9 10.00 Fair -- 88.0 66.0 48% NA 90 29.99 1015.3
3:53 pm CDT 10.00 A Few Clouds -- 88.0 66.9 50% NA 91 29.99 1015.2
2:53 pm CDT N 0.0 10.00 Partly Cloudy -- 86.0 66.9 53% NA 89 30.00 1015.6
1:53 pm CDT W 6.9 10.00 Partly Cloudy -- 85.0 68.0 57% NA 88 30.00 1015.6
12:53 pm CDT N 0.0 10.00 A Few Clouds -- 84.0 66.9 57% NA 87 30.02 1016.1
11:53 am CDT S 5.8 10.00 Mostly Cloudy -- 85.0 66.9 55% NA 88 30.04 1016.8
10:53 am CDT N 0.0 10.00 Mostly Cloudy -- 83.0 70.0 65% NA 87 30.05 1017.2
9:53 am CDT SW 4.6 10.00 Fair -- 81.0 70.0 69% NA 85 30.05 1017.2
8:53 am CDT N 0.0 10.00 Partly Cloudy -- 79.0 70.0 74% NA NA 30.05 1017.3
7:53 am CDT N 0.0 10.00 A Few Clouds -- 76.0 71.1 85% NA NA 30.05 1017.3
6:53 am CDT N 0.0 10.00 A Few Clouds -- 74.0 70.0 88% NA NA 30.04 1016.8
5:53 am CDT N 0.0 10.00 Mostly Cloudy -- 72.0 69.1 91% NA NA 30.03 1016.6
4:53 am CDT S 3.5 10.00 Mostly Cloudy -- 72.0 69.1 91% NA NA 30.01 1016.1

Regional Weather Observation


Montgomery, Dannelly Field, AL (KMGM)

Mostly Cloudy
73.0 F

Alexander City, Thomas C Russell Field Airport, AL (KALX)

Fair
66.0 F

Mac Crenshaw Memorial Airport, AL (KPRN)

Fair
69.0 F

Alabaster, Shelby County Airport, AL (KEET)

Fair
67.0 F

Troy, Troy Municipal Airport, AL (KTOI)

Mostly Cloudy
72.0 F

Auburn-Opelika Airport, AL (KAUO)

Fair
68.0 F